Terug naar catalogus

STARLINK-36702

ActiefCommunicatieSSO
NORAD 67714·PAYLOAD·🇺🇸 United States

Gelanceerd Feb 7, 2026 vanaf Vandenberg Space Force Base

Loading…

Volgende Passages (komende 24 uur)

TLE

VersSource: CelesTrak SupGP

Epoch: Sep 15, 2026, 02:54 UTC

1 67714C 26025X   26258.12131944  .00001717  00000+0  53294-4 0  2588
2 67714  97.2851   8.0748 0001044  83.9000 141.9006 15.33439665    12

Volg STARLINK-36702 in realtime met AllMySat

Download on the App Store